TURKSAT 4B (40984 NORAD) Tracking and Keplerian Element Data

This shows tracking and keplerian element data for the satellite.

Feedback or suggestion? Click here.




ElementValue
Catalog40984
NameTURKSAT 4B
Epoch Orbit2173
Epoch Day262.21368587
Epoch Year2021
RAAN170.1644
Inclination0.0246
Eccentricity0.0002326
Argument of Perigee5.7532
Mean Anonmoly309.3436
Mean Motion1.00268438
Decay Rate9.2E-07
L11 40984U 15060A 21262.21368587 .00000092 00000-0 00000+0 0 9990
L22 40984 0.0246 170.1644 0002326 5.7532 309.3436 1.00268438 21730

Live tracking and technical data element details for TURKSAT 4B (NORAD 40984). TURKSAT 4B can be tracked NOW for your location showing map with azimuth and elevation plus other details from your city location.

Track the satellite on the map from your city or location and see movement details for azimuth, elevation, latitude, longitude, range, height, and movement on the map or in text.







IsCatalogInMostPopularTable: catalog: 40984, numindb: 520
Update: records affected: 1



GetName: 40984 TURKSAT 4B

Hit Count: updated at: Sat, 25 Sep 2021 23:33:23 GMT